Change the Weather History Date:

Sunday, January 15, 2012

  Actual Average Record
Temperature  
Mean Temperature 76 °F 72 °F  
Max Temperature 80 °F 78 °F 85 °F (2015)
Min Temperature 71 °F 65 °F 55 °F (1959)
Degree Days  
Heating Degree Days 0 0  
Month to date heating degree days 0 0  
Since 1 July heating degree days 0 0  
Cooling Degree Days 11 7  
Month to date cooling degree days 117 105  
Year to date cooling degree days 117 105  
Growing Degree Days 25 (Base 50)    
Moisture  
Dew Point 67 °F    
Average Humidity 76    
Maximum Humidity 84    
Minimum Humidity 67    
Precipitation  
Precipitation 0.03 in 0.12 in 0.89 in (1957)
Month to date precipitation 0.15 1.91  
Year to date precipitation 0.15 1.91  
Snow  
Snow 0.00 in - - ()
Month to date snowfall 0.0  
Since 1 July snowfall 0.0  
Snow Depth 0.00 in    
Sea Level Pressure  
Sea Level Pressure 29.89 in    
Wind  
Wind Speed 15 mph (SSW)    
Max Wind Speed 25 mph    
Max Gust Speed 35 mph    
Visibility 10 miles    
Events Rain    
T = Trace of Precipitation, MM = Missing Value Source: NWS Daily Summary

Daily Weather History Graph

Daily Weather History Graph

Search for Another Location

Airport or City:

Trip Planner

Search our weather history database for the weather conditions in past years. The results will help you decide how hot, cold, wet, or windy it might be!

Date:

Astronomy

Jan. 15, 2012 Rise Set
Actual Time 7:18 AM HST 6:14 PM HST
Civil Twilight 6:54 AM HST 6:38 PM HST
Nautical Twilight 6:27 AM HST 7:06 PM HST
Astronomical Twilight 6:00 AM HST 7:33 PM HST
Moon No Moon Rise 11:42 AM HST (1/15)
Length of Visible Light 11h 44m
Length of Day
10h 56m
Waning Gibbous, 55% of the Moon is Illuminated
Jan 15
Waning Gibbous
Jan 15
Last Quarter
Jan 22
New
Jan 30
First Quarter
Feb 7
Full

Hourly Weather History & Observations

Time (HST) Temp. Dew Point Humidity Pressure Visibility Wind Dir Wind Speed Gust Speed Precip Events Conditions
12:53 AM 73.0 °F 64.0 °F 73% 29.84 in 10.0 mi SSW 13.8 mph - N/A   Mostly Cloudy
1:16 AM 73.4 °F 64.4 °F 73% 29.85 in 10.0 mi SSW 10.4 mph 21.9 mph N/A   Mostly Cloudy
1:46 AM 73.4 °F 66.2 °F 78% 29.84 in 10.0 mi SSW 9.2 mph 24.2 mph N/A   Mostly Cloudy
1:53 AM 73.9 °F 66.0 °F 76% 29.84 in 10.0 mi SSW 18.4 mph 24.2 mph N/A   Mostly Cloudy
2:00 AM 73.4 °F 66.2 °F 78% 29.84 in 10.0 mi SSW 15.0 mph 24.2 mph N/A   Mostly Cloudy
2:08 AM 73.4 °F 66.2 °F 78% 29.85 in 10.0 mi SW 16.1 mph 21.9 mph N/A   Mostly Cloudy
2:53 AM 73.9 °F 64.9 °F 73% 29.85 in 10.0 mi South 15.0 mph 23.0 mph N/A   Mostly Cloudy
3:53 AM 72.0 °F 66.9 °F 84% 29.85 in 9.0 mi SSW 10.4 mph - 0.03 in Rain Light Rain
4:01 AM 71.6 °F 66.2 °F 83% 29.85 in 10.0 mi SSW 12.7 mph - 0.00 in   Overcast
4:53 AM 73.0 °F 66.9 °F 81% 29.85 in 10.0 mi South 12.7 mph 19.6 mph 0.00 in   Mostly Cloudy
5:17 AM 73.4 °F 66.2 °F 78% 29.85 in 10.0 mi SSW 15.0 mph 23.0 mph N/A   Scattered Clouds
5:53 AM 73.0 °F 66.0 °F 79% 29.86 in 10.0 mi South 11.5 mph 20.7 mph N/A   Scattered Clouds
6:53 AM 73.0 °F 66.9 °F 81% 29.86 in 10.0 mi South 13.8 mph 21.9 mph 0.00 in   Overcast
6:58 AM 73.4 °F 66.2 °F 78% 29.86 in 10.0 mi South 11.5 mph 23.0 mph N/A   Overcast
7:08 AM 73.4 °F 66.2 °F 78% 29.87 in 10.0 mi SSW 12.7 mph 23.0 mph N/A   Overcast
7:15 AM 73.4 °F 66.2 °F 78% 29.87 in 10.0 mi SSW 10.4 mph 23.0 mph N/A   Overcast
7:53 AM 73.9 °F 66.9 °F 79% 29.89 in 10.0 mi SSW 8.1 mph 19.6 mph N/A   Scattered Clouds
8:00 AM 73.4 °F 66.2 °F 78% 29.90 in 10.0 mi SSW 13.8 mph 19.6 mph N/A   Mostly Cloudy
8:16 AM 73.4 °F 66.2 °F 78% 29.90 in 10.0 mi SW 16.1 mph 23.0 mph N/A   Scattered Clouds
8:53 AM 75.0 °F 68.0 °F 79% 29.91 in 10.0 mi SSW 12.7 mph 18.4 mph N/A   Mostly Cloudy
9:53 AM 78.1 °F 68.0 °F 71% 29.92 in 10.0 mi SSW 13.8 mph 27.6 mph N/A   Mostly Cloudy
10:02 AM 78.8 °F 68.0 °F 69% 29.93 in 10.0 mi SSW 13.8 mph 25.3 mph N/A   Scattered Clouds
10:53 AM 75.9 °F 66.9 °F 74% 29.92 in 10.0 mi South 23.0 mph 29.9 mph 0.00 in Rain Light Rain
11:05 AM 75.2 °F 64.4 °F 69% 29.92 in 10.0 mi South 17.3 mph 27.6 mph N/A   Overcast
11:36 AM 73.4 °F 66.2 °F 78% 29.91 in 10.0 mi South 18.4 mph 26.5 mph 0.00 in Rain Light Rain
11:49 AM 75.2 °F 66.2 °F 73% 29.91 in 10.0 mi SSW 15.0 mph 28.8 mph 0.00 in   Overcast
11:53 AM 75.9 °F 66.0 °F 71% 29.90 in 10.0 mi SSW 18.4 mph 27.6 mph 0.00 in   Overcast
12:53 PM 78.1 °F 66.9 °F 68% 29.87 in 10.0 mi SW 20.7 mph 32.2 mph N/A   Mostly Cloudy
1:42 PM 78.8 °F 68.0 °F 69% 29.87 in 10.0 mi South 16.1 mph 24.2 mph N/A   Mostly Cloudy
1:53 PM 79.0 °F 68.0 °F 69% 29.86 in 10.0 mi SSW 23.0 mph 34.5 mph N/A   Mostly Cloudy
2:10 PM 78.8 °F 68.0 °F 69% 29.86 in 10.0 mi SSW 17.3 mph 28.8 mph N/A   Mostly Cloudy
2:53 PM 78.1 °F 66.9 °F 68% 29.86 in 10.0 mi SSW 19.6 mph 26.5 mph N/A   Mostly Cloudy
3:53 PM 78.1 °F 68.0 °F 71% 29.86 in 10.0 mi South 12.7 mph 23.0 mph N/A   Mostly Cloudy
4:29 PM 77.0 °F 68.0 °F 74% 29.87 in 10.0 mi South 16.1 mph 20.7 mph N/A   Mostly Cloudy
4:51 PM 77.0 °F 69.8 °F 78% 29.88 in 10.0 mi SSW 12.7 mph 20.7 mph N/A   Mostly Cloudy
4:53 PM 77.0 °F 69.1 °F 76% 29.88 in 10.0 mi SSW 17.3 mph 23.0 mph N/A   Mostly Cloudy
5:53 PM 75.9 °F 69.1 °F 79% 29.88 in 10.0 mi South 13.8 mph 20.7 mph N/A   Mostly Cloudy
6:53 PM 75.0 °F 69.1 °F 82% 29.89 in 10.0 mi South 15.0 mph 23.0 mph N/A   Mostly Cloudy
7:53 PM 75.9 °F 69.1 °F 79% 29.93 in 10.0 mi South 13.8 mph 24.2 mph N/A   Overcast
8:35 PM 75.2 °F 69.8 °F 83% 29.95 in 10.0 mi SSW 13.8 mph 21.9 mph N/A   Overcast
8:53 PM 75.0 °F 66.9 °F 76% 29.94 in 10.0 mi South 13.8 mph 24.2 mph N/A   Overcast
9:23 PM 75.2 °F 69.8 °F 83% 29.96 in 10.0 mi South 15.0 mph 26.5 mph N/A   Overcast
9:34 PM 75.2 °F 69.8 °F 83% 29.96 in 10.0 mi South 12.7 mph 24.2 mph N/A   Overcast
9:53 PM 75.0 °F 69.1 °F 82% 29.95 in 10.0 mi South 13.8 mph 19.6 mph N/A   Overcast
10:53 PM 75.0 °F 68.0 °F 79% 29.95 in 10.0 mi South 10.4 mph - N/A   Overcast
11:53 PM 75.0 °F 70.0 °F 84% 29.95 in 10.0 mi South 20.7 mph 26.5 mph N/A   Overcast